Time,TemperatureF,DewpointF,PressureIn,WindDirection,WindDirectionDegrees,WindSpeedMPH,WindSpeedGustMPH,Humidity,HourlyPrecipIn,Conditions,Clouds,dailyrainin,SoftwareType,DateUTC
2013-05-27 00:05:00,75.6,70.0,30.00,SSE,166,5.0,11.0,83,0.00,,,0.45,weatherlink.com 1.10,2013-05-27 05:05:00,
2013-05-27 00:20:00,75.2,70.0,30.00,South,183,6.0,10.0,83,0.00,,,0.45,weatherlink.com 1.10,2013-05-27 05:20:00,
2013-05-27 00:35:00,74.8,70.0,30.00,South,173,4.0,8.0,84,0.00,,,0.45,weatherlink.com 1.10,2013-05-27 05:35:00,
2013-05-27 00:50:00,74.5,69.0,29.99,SSW,204,6.0,8.0,84,0.00,,,0.00,weatherlink.com 1.10,2013-05-27 05:50:00,
2013-05-27 01:05:00,74.0,69.0,30.00,SSE,162,3.0,9.0,84,0.00,,,0.00,weatherlink.com 1.10,2013-05-27 06:05:00,
2013-05-27 01:20:00,73.7,69.0,29.99,South,176,3.0,6.0,85,0.00,,,0.00,weatherlink.com 1.10,2013-05-27 06:20:00,
2013-05-27 01:35:00,73.3,69.0,29.98,SSE,166,4.0,8.0,85,0.00,,,0.00,weatherlink.com 1.10,2013-05-27 06:35:00,
2013-05-27 01:50:00,73.1,68.0,29.98,SSW,193,3.0,9.0,84,0.00,,,0.00,weatherlink.com 1.10,2013-05-27 06:50:00,
2013-05-27 02:05:00,73.1,68.0,29.98,SSE,150,7.0,9.0,84,0.00,,,0.00,weatherlink.com 1.10,2013-05-27 07:05:00,
2013-05-27 02:20:00,73.0,68.0,29.98,SSW,203,2.0,9.0,84,0.00,,,0.00,weatherlink.com 1.10,2013-05-27 07:20:00,
2013-05-27 02:35:00,72.8,68.0,29.98,SW,214,2.0,7.0,84,0.00,,,0.00,weatherlink.com 1.10,2013-05-27 07:35:00,
2013-05-27 02:50:00,72.6,68.0,29.98,SSE,162,3.0,6.0,84,0.00,,,0.00,weatherlink.com 1.10,2013-05-27 07:50:00,
2013-05-27 03:05:00,72.3,68.0,29.97,SSE,159,4.0,5.0,85,0.00,,,0.00,weatherlink.com 1.10,2013-05-27 08:05:00,
2013-05-27 03:20:00,71.8,68.0,29.97,SSW,201,4.0,5.0,87,0.00,,,0.00,weatherlink.com 1.10,2013-05-27 08:20:00,
2013-05-27 03:35:00,71.5,68.0,29.97,South,190,2.0,5.0,88,0.00,,,0.00,weatherlink.com 1.10,2013-05-27 08:35:00,
2013-05-27 03:50:00,71.6,68.0,29.96,SW,219,7.0,8.0,88,0.00,,,0.00,weatherlink.com 1.10,2013-05-27 08:50:00,
2013-05-27 04:06:00,72.2,69.0,29.95,South,188,7.0,11.0,88,0.00,,,0.00,weatherlink.com 1.10,2013-05-27 09:06:00,
2013-05-27 04:21:00,72.5,69.0,29.95,SSW,211,2.0,9.0,87,0.00,,,0.00,weatherlink.com 1.10,2013-05-27 09:21:00,
2013-05-27 04:36:00,72.5,69.0,29.95,WSW,246,8.0,9.0,87,0.00,,,0.00,weatherlink.com 1.10,2013-05-27 09:36:00,
2013-05-27 04:51:00,72.6,69.0,29.95,SSW,212,7.0,12.0,87,0.00,,,0.00,weatherlink.com 1.10,2013-05-27 09:51:00,
2013-05-27 05:06:00,72.6,69.0,29.95,SW,222,10.0,11.0,87,0.00,,,0.00,weatherlink.com 1.10,2013-05-27 10:06:00,
2013-05-27 05:21:00,72.2,69.0,29.95,SW,219,6.0,10.0,88,0.00,,,0.00,weatherlink.com 1.10,2013-05-27 10:21:00,
2013-05-27 05:35:00,72.3,68.0,29.95,SSW,210,5.0,19.0,87,0.00,,,0.00,weatherlink.com 1.10,2013-05-27 10:35:00,
2013-05-27 05:50:00,72.2,68.0,29.95,South,179,7.0,16.0,87,0.00,,,0.00,weatherlink.com 1.10,2013-05-27 10:50:00,
2013-05-27 06:05:00,72.2,68.0,29.96,South,184,2.0,13.0,87,0.00,,,0.00,weatherlink.com 1.10,2013-05-27 11:05:00,
2013-05-27 06:20:00,72.0,68.0,29.96,SSW,205,5.0,14.0,88,0.00,,,0.00,weatherlink.com 1.10,2013-05-27 11:20:00,
2013-05-27 06:35:00,72.0,68.0,29.97,SSW,197,5.0,11.0,87,0.00,,,0.00,weatherlink.com 1.10,2013-05-27 11:35:00,
2013-05-27 06:50:00,71.9,68.0,29.98,SSW,208,4.0,10.0,88,0.00,,,0.00,weatherlink.com 1.10,2013-05-27 11:50:00,
2013-05-27 07:05:00,72.0,68.0,29.98,SSW,197,8.0,11.0,88,0.00,,,0.00,weatherlink.com 1.10,2013-05-27 12:05:00,
2013-05-27 07:20:00,72.3,69.0,29.98,SW,218,4.0,11.0,88,0.00,,,0.00,weatherlink.com 1.10,2013-05-27 12:20:00,
2013-05-27 07:35:00,72.4,69.0,29.98,SW,223,4.0,15.0,88,0.00,,,0.00,weatherlink.com 1.10,2013-05-27 12:35:00,
2013-05-27 07:50:00,72.7,69.0,29.98,South,172,8.0,13.0,88,0.00,,,0.00,weatherlink.com 1.10,2013-05-27 12:50:00,
2013-05-27 08:05:00,73.6,69.0,29.98,South,187,5.0,15.0,86,0.00,,,0.00,weatherlink.com 1.10,2013-05-27 13:05:00,
2013-05-27 08:21:00,74.0,69.0,29.98,SW,214,7.0,16.0,85,0.00,,,0.00,weatherlink.com 1.10,2013-05-27 13:21:00,
2013-05-27 08:36:00,74.7,70.0,29.99,SSW,208,3.0,12.0,85,0.00,,,0.00,weatherlink.com 1.10,2013-05-27 13:36:00,
2013-05-27 08:51:00,74.8,70.0,29.99,South,191,5.0,19.0,84,0.00,,,0.00,weatherlink.com 1.10,2013-05-27 13:51:00,
2013-05-27 09:06:00,76.1,70.0,29.99,SW,234,3.0,15.0,82,0.00,,,0.00,weatherlink.com 1.10,2013-05-27 14:06:00,
2013-05-27 09:21:00,76.4,69.0,29.99,SSW,197,9.0,19.0,79,0.00,,,0.00,weatherlink.com 1.10,2013-05-27 14:21:00,
2013-05-27 09:36:00,76.7,70.0,29.99,ESE,110,6.0,13.0,79,0.00,,,0.00,weatherlink.com 1.10,2013-05-27 14:36:00,
2013-05-27 09:51:00,76.6,69.0,29.99,SW,228,10.0,13.0,78,0.00,,,0.00,weatherlink.com 1.10,2013-05-27 14:51:00,
2013-05-27 10:06:00,76.7,69.0,29.98,SSW,197,15.0,17.0,78,0.00,,,0.00,weatherlink.com 1.10,2013-05-27 15:06:00,
2013-05-27 10:21:00,77.1,70.0,29.98,SSW,201,3.0,11.0,78,0.00,,,0.00,weatherlink.com 1.10,2013-05-27 15:21:00,
2013-05-27 10:36:00,78.8,70.0,29.98,West,264,4.0,18.0,75,0.00,,,0.00,weatherlink.com 1.10,2013-05-27 15:36:00,
2013-05-27 10:51:00,78.8,69.0,29.98,SW,224,10.0,17.0,72,0.00,,,0.00,weatherlink.com 1.10,2013-05-27 15:51:00,
2013-05-27 11:06:00,79.0,70.0,29.98,SW,215,7.0,8.0,75,0.00,,,0.00,weatherlink.com 1.10,2013-05-27 16:06:00,
2013-05-27 11:21:00,79.5,70.0,29.98,SSW,194,6.0,12.0,72,0.00,,,0.00,weatherlink.com 1.10,2013-05-27 16:21:00,
2013-05-27 11:36:00,80.2,70.0,29.98,SSE,154,7.0,15.0,70,0.00,,,0.00,weatherlink.com 1.10,2013-05-27 16:36:00,
2013-05-27 11:51:00,80.5,69.0,29.98,SE,124,5.0,20.0,69,0.00,,,0.00,weatherlink.com 1.10,2013-05-27 16:51:00,
2013-05-27 12:06:00,81.3,71.0,29.98,SSW,194,6.0,16.0,71,0.00,,,0.00,weatherlink.com 1.10,2013-05-27 17:06:00,
2013-05-27 12:21:00,80.5,70.0,29.98,SSE,164,6.0,15.0,71,0.00,,,0.00,weatherlink.com 1.10,2013-05-27 17:21:00,
2013-05-27 12:36:00,81.6,71.0,29.97,SSW,207,10.0,18.0,70,0.00,,,0.00,weatherlink.com 1.10,2013-05-27 17:36:00,
2013-05-27 12:51:00,82.4,70.0,29.96,South,179,10.0,16.0,66,0.00,,,0.00,weatherlink.com 1.10,2013-05-27 17:51:00,
2013-05-27 13:06:00,82.8,71.0,29.96,SSW,213,5.0,25.0,68,0.00,,,0.00,weatherlink.com 1.10,2013-05-27 18:06:00,
2013-05-27 13:21:00,83.6,71.0,29.95,SSE,167,5.0,19.0,66,0.00,,,0.00,weatherlink.com 1.10,2013-05-27 18:21:00,
2013-05-27 13:36:00,83.6,71.0,29.94,SW,226,5.0,14.0,66,0.00,,,0.00,weatherlink.com 1.10,2013-05-27 18:36:00,
2013-05-27 13:51:00,83.5,70.0,29.94,SSW,194,12.0,15.0,63,0.00,,,0.00,weatherlink.com 1.10,2013-05-27 18:51:00,
2013-05-27 14:06:00,83.6,69.0,29.93,SSE,155,9.0,20.0,62,0.00,,,0.00,weatherlink.com 1.10,2013-05-27 19:06:00,
2013-05-27 14:21:00,84.6,71.0,29.93,South,188,9.0,13.0,63,0.00,,,0.00,weatherlink.com 1.10,2013-05-27 19:21:00,
2013-05-27 14:37:00,85.1,71.0,29.92,South,177,6.0,14.0,62,0.00,,,0.00,weatherlink.com 1.10,2013-05-27 19:37:00,
2013-05-27 14:52:00,85.5,70.0,29.92,South,169,18.0,18.0,61,0.00,,,0.00,weatherlink.com 1.10,2013-05-27 19:52:00,
2013-05-27 15:07:00,86.4,71.0,29.91,West,259,5.0,19.0,60,0.00,,,0.00,weatherlink.com 1.10,2013-05-27 20:07:00,
2013-05-27 15:22:00,85.6,70.0,29.91,SSW,201,4.0,13.0,59,0.00,,,0.00,weatherlink.com 1.10,2013-05-27 20:22:00,
2013-05-27 15:37:00,86.1,69.0,29.90,SSW,198,5.0,16.0,57,0.00,,,0.00,weatherlink.com 1.10,2013-05-27 20:37:00,
2013-05-27 15:52:00,85.8,69.0,29.90,WSW,238,7.0,21.0,57,0.00,,,0.00,weatherlink.com 1.10,2013-05-27 20:52:00,
2013-05-27 16:07:00,86.3,70.0,29.89,South,184,5.0,11.0,58,0.00,,,0.00,weatherlink.com 1.10,2013-05-27 21:07:00,
2013-05-27 16:22:00,86.5,69.0,29.89,SSE,164,9.0,12.0,57,0.00,,,0.00,weatherlink.com 1.10,2013-05-27 21:22:00,
2013-05-27 16:37:00,86.7,69.0,29.88,SSW,197,8.0,24.0,56,0.00,,,0.00,weatherlink.com 1.10,2013-05-27 21:37:00,
2013-05-27 16:52:00,86.7,70.0,29.87,SSW,193,6.0,13.0,57,0.00,,,0.00,weatherlink.com 1.10,2013-05-27 21:52:00,
2013-05-27 17:07:00,86.7,70.0,29.87,SSW,212,9.0,16.0,58,0.00,,,0.00,weatherlink.com 1.10,2013-05-27 22:07:00,
2013-05-27 17:22:00,86.7,70.0,29.86,SSW,200,9.0,19.0,57,0.00,,,0.00,weatherlink.com 1.10,2013-05-27 22:22:00,
2013-05-27 17:37:00,86.3,70.0,29.86,SW,215,11.0,13.0,58,0.00,,,0.00,weatherlink.com 1.10,2013-05-27 22:37:00,
2013-05-27 17:52:00,86.5,70.0,29.85,South,175,9.0,15.0,58,0.00,,,0.00,weatherlink.com 1.10,2013-05-27 22:52:00,
2013-05-27 18:07:00,86.5,69.0,29.84,SE,145,7.0,19.0,56,0.00,,,0.00,weatherlink.com 1.10,2013-05-27 23:07:00,
2013-05-27 18:22:00,86.3,69.0,29.83,SW,231,5.0,12.0,57,0.00,,,0.00,weatherlink.com 1.10,2013-05-27 23:22:00,
2013-05-27 18:37:00,86.0,68.0,29.83,SSW,197,5.0,11.0,56,0.00,,,0.00,weatherlink.com 1.10,2013-05-27 23:37:00,
2013-05-27 18:52:00,85.9,69.0,29.82,SSE,159,9.0,10.0,58,0.00,,,0.00,weatherlink.com 1.10,2013-05-27 23:52:00,
2013-05-27 21:48:00,79.1,69.0,29.84,South,177,11.0,13.0,71,0.00,,,0.00,weatherlink.com 1.10,2013-05-28 02:48:00,
2013-05-27 22:07:00,79.1,69.0,29.84,SSE,157,11.0,17.0,72,0.00,,,0.00,weatherlink.com 1.10,2013-05-28 03:07:00,
2013-05-27 22:22:00,79.0,70.0,29.85,SW,218,9.0,15.0,73,0.00,,,0.00,weatherlink.com 1.10,2013-05-28 03:22:00,
2013-05-27 22:37:00,78.8,70.0,29.86,SSW,194,6.0,17.0,74,0.00,,,0.00,weatherlink.com 1.10,2013-05-28 03:37:00,
2013-05-27 22:52:00,78.7,70.0,29.87,South,180,10.0,15.0,74,0.00,,,0.00,weatherlink.com 1.10,2013-05-28 03:52:00,
2013-05-27 23:07:00,78.4,70.0,29.87,South,190,7.0,17.0,75,0.00,,,0.00,weatherlink.com 1.10,2013-05-28 04:07:00,
2013-05-27 23:22:00,77.9,70.0,29.87,South,170,9.0,14.0,76,0.00,,,0.00,weatherlink.com 1.10,2013-05-28 04:22:00,
2013-05-27 23:37:00,77.7,70.0,29.87,SSW,210,5.0,15.0,77,0.00,,,0.00,weatherlink.com 1.10,2013-05-28 04:37:00,
2013-05-27 23:52:00,77.4,70.0,29.87,SSE,165,13.0,15.0,78,0.00,,,0.00,weatherlink.com 1.10,2013-05-28 04:52:00,